Hourly Data Report for October 02, 2015

All times are specified in Local Standard Time (LST). Add 1 hour to adjust for Daylight Saving Time where and when it is observed.

QIKIQTARJUAQ A
NUNAVUT

67°32'48.000" N
64°01'54.000" W
5.50 m
2400577
YVM

Download Data

Hourly Data (October 2015)
Hourly Data Report for October 2, 2015
Temp Definition
°C
Dew Point Temp Definition
°C
Rel Hum Definition
%
Wind Dir Definition
10's deg

Wind Spd Definition
km/h
Visibility Definition
km
Stn Press Definition
kPa
Hmdx Definition


Wind Chill Definition


Weather Definition


TIME
00:00 Legend Double Dagger 6.9 -2.8 50 17 24 16.1 100.90     LegendNANA
01:00 Legend Double Dagger 6.8 -2.7 51 16 26 16.1 100.80     LegendNANA
02:00 Legend Double Dagger 2.6 -0.8 78 6 8 16.1 100.83     LegendNANA
03:00 Legend Double Dagger 2.2 -0.7 81 8 4 16.1 100.81     LegendNANA
04:00 Legend Double Dagger 1.9 -1.0 81 14 5 16.1 100.85     LegendNANA
05:00 Legend Double Dagger 1.7 -1.2 81 15 8 16.1 100.84     LegendNANA
06:00 Legend Double Dagger 1.5 -1.3 82 LegendMM 5 16.1 100.87     LegendNANA
07:00 Legend Double Dagger 6.2 -3.6 49 27 26 16.1 100.93     LegendNANA
08:00 Legend Double Dagger 6.2 -6.1 41 27 43 16.1 100.94     LegendNANA
09:00 Legend Double Dagger 5.3 -5.2 47 30 22 16.1 101.04     LegendNANA
10:00 Legend Double Dagger 5.4 -6.4 42 30 28 16.1 101.13     LegendNANA
11:00 Legend Double Dagger 5.8 -8.1 36 27 30 16.1 101.22     LegendNANA
12:00 Legend Double Dagger 4.8 -4.9 50 27 21 16.1 101.41     LegendNANA
13:00 Legend Double Dagger 4.4 -7.0 43 31 9 16.1 101.53     LegendNANA
14:00 Legend Double Dagger 3.8 -6.3 48 27 17 16.1 101.66     LegendNANA
15:00 Legend Double Dagger 3.7 -7.7 43 26 24 16.1 101.76     LegendNANA
16:00 Legend Double Dagger 3.7 -9.6 37 29 26 16.1 101.89     LegendNANA
17:00 Legend Double Dagger 3.3 -11.9 32 30 18 16.1 101.99     LegendNANA
18:00 Legend Double Dagger 3.4 -11.0 34 32 24 16.1 102.09     LegendNANA
19:00 Legend Double Dagger 3.0 -9.3 40 31 28 16.1 102.17     LegendNANA
20:00 Legend Double Dagger 2.5 -8.9 43 28 18 16.1 102.21     LegendNANA
21:00 Legend Double Dagger 1.8 -6.4 55 25 22 16.1 102.24     LegendNANA
22:00 Legend Double Dagger 1.4 -7.8 51 27 9 16.1 102.30     LegendNANA
23:00 Legend Double Dagger 0.3 -7.2 57 22 9 16.1 102.29     LegendNANA

Notes on Data Quality.

Legend

  • E = Estimated
  • M = Missing
  • NA = Not Available
  • ‡ = Partner data that is not subject to review by the National Climate Archives
Date modified: